Regional Weather Roundup
Issued by NWS

Home | Current Version | Previous Version | Graphics & Text | Print | Product List | Glossary On
Versions: 1 2 3 4 5 6 7 8 9 10 11 12 13 14 15 16 17 18 19 20 21 22 23 24 25 26 27 28 29 30 31 32 33 34 35 36 37 38 39 40 41 42 43 44 45 46 47 48 49 50
416
ASUS44 KMEG 051510
RWRTN
TENNESSEE HOURLY STATE WEATHER ROUNDUP
NATIONAL WEATHER SERVICE MEMPHIS TN
900 AM CST FRI FEB 05 2016

TNZ002-004-019-021-049-052-054-088>092-051600-
WEST TENNESSEE

CITY           SKY/WX    TMP DP  RH WIND       PRES   REMARKS
MEMPHIS INTL   PTSUNNY   39  26  59 SW6       30.49R WCI  35
NWS MEMPHIS      N/A     35 N/A N/A MISG        N/A
JACKSON        SUNNY     35  27  72 CALM      30.47R
DYERSBURG      CLOUDY    36  28  75 CALM      30.48S
UNION CITY     SUNNY     34  28  80 S5        30.44S WCI  30
PARIS          SUNNY     34  25  69 CALM      30.45R
LEXINGTON      SUNNY     32  27  80 CALM      30.46R
$$

TNZ008-025-027-028-033-062-065-066-051600-
NORTH MIDDLE TENNESSEE

CITY           SKY/WX    TMP DP  RH WIND       PRES   REMARKS
NASHVILLE      SUNNY     33  23  66 CALM      30.48S
CLARKSVILLE    SUNNY     32  25  75 SE5       30.46S WCI  27
SMYRNA         SUNNY     32  25  76 CALM      30.50S
COOKEVILLE     SUNNY     30  23  74 CALM      30.44F
CROSSVILLE     SUNNY     30  17  58 N8        30.41R WCI  22
$$

TNZ061-075-076-078-094-096-097-051600-
SOUTH MIDDLE TENNESSEE

CITY           SKY/WX    TMP DP  RH WIND       PRES   REMARKS
FAYETTEVILLE   SUNNY     34  21  60 NE6       30.45R WCI  29
TULLAHOMA      SUNNY     32  19  59 NE8       30.44S WCI  25
WINCHESTER     SUNNY     30  21  69 CALM      30.45F
MCMINNVILLE    SUNNY     32  21  64 E7        30.45S WCI  26
COLUMBIA       SUNNY     32  30  93 CALM      30.45F
SHELBYVILLE    SUNNY     34  25  69 CALM      30.47S
$$

TNZ017-018-042-046-047-051600-
NORTHEAST TENNESSEE

CITY           SKY/WX    TMP DP  RH WIND       PRES   REMARKS
TRI CITIES     SUNNY     31  15  52 VRB3      30.41S
$$

TNZ012-013-036-069-073-074-051600-
CENTRAL EAST TENNESSEE

CITY           SKY/WX    TMP DP  RH WIND       PRES   REMARKS
KNOXVILLE      SUNNY     33  19  56 NE9       30.45R WCI  25
OAK RIDGE      SUNNY     34  18  52 VRB5      30.47R WCI  30
GATLINBURG       N/A     30  18  59 CALM      30.45S
MORRISTOWN     SUNNY     32  16  51 CALM      30.43R
$$

TNZ083-085-099-051600-
SOUTHEAST TENNESSEE

CITY           SKY/WX    TMP DP  RH WIND       PRES   REMARKS
CHATTANOOGA    SUNNY     35  17  47 N13       30.46R WCI  26
$$

SKY/WX REPORTED AS FAIR MEANS FEW OR NO CLOUDS BELOW
12 THOUSAND FEET.





USA.gov is the U.S. government's official web portal to all federal, state and local government web resources and services.